Piney Island, NC

4:38 AM EDT on May 27, 2017 (GMT -0400)
Piney Island

Weather History for KNBT - October, 2013

Change the Weather History Date:

Saturday, October 5, 2013

  Actual Average (KMRH) Record (KMRH)
Temperature  
Mean Temperature 78 °F -  
Max Temperature 87 °F 78 °F 95 °F (1986)
Min Temperature 69 °F 59 °F 38 °F (1974)
Cooling Degree Days 12    
Growing Degree Days 28 (Base 50)    
Moisture  
Dew Point 68 °F    
Average Humidity 82    
Maximum Humidity 100    
Minimum Humidity 46    
Precipitation  
Precipitation 0.00 in - - ()
Sea Level Pressure  
Sea Level Pressure 30.11 in    
Wind  
Wind Speed 5 mph (SW)    
Max Wind Speed 10 mph    
Max Gust Speed -    
Visibility 8 miles    
Events      
Averages and records for this station are not official NWS values.
T = Trace of Precipitation, MM = Missing Value Source: NWS Daily Summary

Daily Weather History Graph

Daily Weather History Graph

Search for Another Location

Airport or City:

Trip Planner

Search our weather history database for the weather conditions in past years. The results will help you decide how hot, cold, wet, or windy it might be!

Date:

Astronomy

Oct. 05, 2013 Rise Set
Actual Time 7:03 AM EDT 6:43 PM EDT
Civil Twilight 6:38 AM EDT 7:09 PM EDT
Nautical Twilight 6:09 AM EDT 7:38 PM EDT
Astronomical Twilight 5:39 AM EDT 8:07 PM EDT
Moon 7:38 AM EDT (10/5) 7:05 PM EDT (10/5)
Length of Visible Light 12h 30m
Length of Day
11h 40m
New Moon, 0% of the Moon is Illuminated
Oct 5
New Moon
Oct 11
First Quarter
Oct 18
Full
Oct 26
Last Quarter
Nov 3
New

Hourly Weather History & Observations

Time (EDT) Temp. Heat Index Dew Point Humidity Pressure Visibility Wind Dir Wind Speed Gust Speed Precip Events Conditions
12:56 AM 70.0 °F - 68.0 °F 93% 30.12 in 9.0 mi SSW 4.6 mph - N/A   Clear
1:56 AM 70.0 °F - 68.0 °F 93% 30.12 in 8.0 mi SSW 6.9 mph - N/A   Clear
2:56 AM 70.0 °F - 68.0 °F 93% 30.11 in 9.0 mi SW 5.8 mph - N/A   Clear
3:56 AM 71.1 °F - 69.1 °F 93% 30.09 in 8.0 mi SW 5.8 mph - N/A   Clear
4:56 AM 70.0 °F - 69.1 °F 97% 30.10 in 6.0 mi SW 3.5 mph - N/A   Clear
5:21 AM 70.0 °F - 69.1 °F 97% 30.09 in 6.0 mi West 5.8 mph - N/A   Partly Cloudy
5:56 AM 71.1 °F - 70.0 °F 96% 30.11 in 7.0 mi West 4.6 mph - N/A   Clear
6:12 AM 71.1 °F - 70.0 °F 96% 30.10 in 1.8 mi West 3.5 mph - 0.00 in   Clear
6:17 AM 70.0 °F - 70.0 °F 100% 30.10 in 0.8 mi Calm Calm - 0.00 in   Mist
6:56 AM 69.1 °F - 68.0 °F 96% 30.12 in 0.8 mi Calm Calm - 0.00 in   Clear
7:22 AM 69.1 °F - 68.0 °F 96% 30.11 in 2.0 mi WNW 3.5 mph - N/A   Clear
7:32 AM 69.1 °F - 68.0 °F 96% 30.11 in 0.8 mi Calm Calm - N/A   Clear
7:42 AM 69.1 °F - 69.1 °F 100% 30.11 in 2.0 mi WNW 3.5 mph - N/A   Clear
7:56 AM 71.1 °F - 70.0 °F 96% 30.13 in 8.0 mi WNW 4.6 mph - N/A   Clear
8:56 AM 73.9 °F - 70.0 °F 87% 30.14 in 10.0 mi WNW 5.8 mph - N/A   Clear
9:56 AM 77.0 °F - 68.0 °F 74% 30.14 in 10.0 mi WNW 8.1 mph - N/A   Clear
10:56 AM 80.1 °F 82.7 °F 68.0 °F 67% 30.14 in 10.0 mi West 6.9 mph - N/A   Clear
11:56 AM 82.9 °F 85.4 °F 66.9 °F 58% 30.13 in 10.0 mi Calm Calm - N/A   Clear
12:56 PM 82.0 °F 84.9 °F 68.0 °F 62% 30.11 in 10.0 mi ENE 6.9 mph - N/A   Partly Cloudy
1:56 PM 82.9 °F 87.0 °F 70.0 °F 65% 30.10 in 10.0 mi East 8.1 mph - N/A   Mostly Cloudy
2:56 PM 86.0 °F 86.8 °F 63.0 °F 46% 30.09 in 10.0 mi SE 8.1 mph - N/A   Clear
3:56 PM 84.9 °F 86.6 °F 64.9 °F 51% 30.09 in 10.0 mi SSE 10.4 mph - N/A   Clear
4:56 PM 84.9 °F 85.9 °F 63.0 °F 48% 30.08 in 10.0 mi South 9.2 mph - N/A   Clear
5:56 PM 82.0 °F 83.1 °F 63.0 °F 52% 30.08 in 10.0 mi South 5.8 mph - N/A   Clear
6:56 PM 77.0 °F - 64.9 °F 66% 30.09 in 10.0 mi South 4.6 mph - N/A   Clear
7:56 PM 73.9 °F - 66.0 °F 76% 30.09 in 10.0 mi South 4.6 mph - N/A   Clear
8:56 PM 73.9 °F - 68.0 °F 82% 30.10 in 10.0 mi South 4.6 mph - N/A   Clear
9:56 PM 72.0 °F - 68.0 °F 87% 30.11 in 10.0 mi South 5.8 mph - N/A   Clear
10:56 PM 73.0 °F - 70.0 °F 90% 30.11 in 9.0 mi South 3.5 mph - N/A   Clear
11:56 PM 73.0 °F - 71.1 °F 93% 30.10 in 8.0 mi South 4.6 mph - N/A   Clear